Showing default

LARES-2, 53105

Orbit data source: Space-Track

LARES-2, 53105 is a payload satellite owned by ASI (IT) that was launched on Wed, 13 Jul 2022 UTC via a VEGA C launch vehicle from the French Guiana (FRGUI). Payload-class satellites include a variety of spacecraft equipped with specific instruments for various scientific and technological missions. These include communications satellites like Starlink; space stations such as the ISS; scientific satellites like the Hubble; Earth observation satellites from companies like Planet Labs, Umbra, and HawkEye 360; GPS; miniature CubeSats for education and research; and military/defense satellites.

Loading next visibility...
Identifier
53105, 2022-080A
Orbit
Active
Country
Flag of ITIT
Related business
Manufacturer
OHB-I
Mission
Operational Civil Technology
Bus & Motor
LARES, Unknown motor
Mass
295 kg wet, 295 kg dry
Launch date (UTC)
2022-07-13 (3 years ago)
Launch vehicle
VEGA C
Launch site
French Guiana (FRGUI)
Object type
Payload
Rocket body
Debris
Shape & HBR
Sphere, 0.2 m
Radar Cross Section
0.139 m², Medium (>0.1 m² and < 1m²)

Expand to show TLE details & history
Last TLE update: 1 day ago

TLE from 1 day ago
0 LARES-2
1 53105U 22080A   25260.67184435 -.00000015  00000-0  00000-0 0  9996
2 53105  70.1681  38.7674 0005085  33.8670 326.2203  6.38965088 74258
Epoch: 2025-09-17T16:07Z
TLE epoch observation values (Epoch: 2025-09-17T16:07:27.351Z)
Latitude
-0.00002°
Longitude
160.05389°
Altitude
5,885.401 km
Speed
5.703 km/s
True Right ascension
02h 35m 02s
True Declination
0° 00' 00"
Sunlit
Object was in daylight at epoch
Visualization orbit readout
Latitude
Unknown
Longitude
Unknown
Altitude
Unknown
Speed
Unknown
Apparent Right ascension
Unknown
Apparent Declination
Unknown
Sunlit
N/A
Visualization observer readout
Local Sidereal Time
12:50:42
Azimuth
Unknown
Elevation
Unknown
Doppler factor
Unknown
Orbital elements
Apogee altitude
5,894.273 km
Perigee altitude
5,881.799 km
Semi-major axis
12,266.173 km
Eccentricity
0.00051
Inclination
70.1681°
RAAN
38.7674°
Arg. of periapsis
33.867°
True anomaly
326.18788°
Mean anomaly
326.2203°
Eccentric anomaly
326.20409°
Mean motion
1.59764 °/min
Orbital period
225.33 mins
BSTAR
0
Loading maneuver chart data...
Computing Atmospheric mass density...
Loading historical data...
Loading historical data...
Loading historical data...
Loading historical data...
Loading historical data...
Loading historical data...
Loading historical data...

Documentation

Showing up to 5 results
|